User: anonymous   Login
Location: Unspecified
(0.0000°N, 0.0000°E)
Time: 20:16:20
(UTC+00:00)
Language:

STARLINK-35453 - Orbit

View from above orbital plane
View from above orbital plane
View from above satellite
View from above satellite

Ground track
Ground track

The orbit is defined by the following mean orbital elements,

1 65878U          26144.80750552 +.00000000 +00000-0 +66412-3 0 00008
2 65878  53.1597 300.3282 0000871  81.4237 278.6865 15.34402128    07
Epoch (UTC): 24 May 2026 19:22:48
Eccentricity: 0.0000871
inclination: 53.1597°
perigee height: 462 km
apogee height: 463 km
right ascension of ascending node: 300.3282°
argument of perigee: 81.4237°
revolutions per day: 15.34402128
mean anomaly at epoch: 278.6865°

The dashed part of the orbit path shows where the satellite is in the earth's shadow,  

DLR